Time,TemperatureF,DewpointF,PressureIn,WindDirection,WindDirectionDegrees,WindSpeedMPH,WindSpeedGustMPH,Humidity,HourlyPrecipIn,Conditions,Clouds,dailyrainin,SoftwareType,DateUTC
2013-01-01 00:00:00,33.1,25.1,29.77,WNW,283,0.0,1.0,72,0.00,,,0.00,Wunderground v.1.15,2013-01-01 05:00:00,
2013-01-01 00:30:00,32.9,25.5,29.75,WSW,242,0.0,0.0,74,0.00,,,0.00,Wunderground v.1.15,2013-01-01 05:30:00,
2013-01-01 01:00:00,33.2,25.5,29.74,WNW,285,1.0,1.0,73,0.00,,,0.00,Wunderground v.1.15,2013-01-01 06:00:00,
2013-01-01 01:30:00,33.4,25.7,29.74,WNW,301,1.0,2.0,73,0.00,,,0.00,Wunderground v.1.15,2013-01-01 06:30:00,
2013-01-01 02:00:00,33.5,25.8,29.75,WNW,297,0.0,0.0,73,0.00,,,0.00,Wunderground v.1.15,2013-01-01 07:00:00,
2013-01-01 02:30:00,33.5,26.1,29.74,West,274,0.0,0.0,74,0.00,,,0.00,Wunderground v.1.15,2013-01-01 07:30:00,
2013-01-01 03:00:00,33.7,26.0,29.73,SE,128,0.0,0.0,73,0.00,,,0.00,Wunderground v.1.15,2013-01-01 08:00:00,
2013-01-01 03:30:00,33.7,26.3,29.73,SSW,209,0.0,0.0,74,0.00,,,0.00,Wunderground v.1.15,2013-01-01 08:30:00,
2013-01-01 04:00:00,33.8,26.4,29.71,West,278,0.0,0.0,74,0.00,,,0.00,Wunderground v.1.15,2013-01-01 09:00:00,
2013-01-01 04:30:00,33.7,26.3,29.71,West,260,0.0,0.0,74,0.00,,,0.00,Wunderground v.1.15,2013-01-01 09:30:00,
2013-01-01 05:00:00,34.1,26.7,29.72,West,259,1.0,2.0,74,0.00,,,0.00,Wunderground v.1.15,2013-01-01 10:00:00,
2013-01-01 05:30:00,34.7,26.9,29.72,WNW,297,1.0,1.0,73,0.00,,,0.00,Wunderground v.1.15,2013-01-01 10:30:00,
2013-01-01 06:00:00,35.2,27.1,29.73,NNW,346,2.0,2.0,72,0.00,,,0.00,Wunderground v.1.15,2013-01-01 11:00:00,
2013-01-01 06:30:00,35.5,27.4,29.73,West,278,2.0,2.0,72,0.00,,,0.00,Wunderground v.1.15,2013-01-01 11:30:00,
2013-01-01 07:00:00,35.0,27.2,29.73,West,270,1.0,1.0,73,0.00,,,0.00,Wunderground v.1.15,2013-01-01 12:00:00,
2013-01-01 07:30:00,34.2,27.1,29.74,West,280,0.0,0.0,75,0.00,,,0.00,Wunderground v.1.15,2013-01-01 12:30:00,
2013-01-01 08:00:00,35.2,27.4,29.74,East,91,2.0,2.0,73,0.00,,,0.00,Wunderground v.1.15,2013-01-01 13:00:00,
2013-01-01 08:30:00,36.0,24.6,29.75,West,278,5.0,8.0,63,0.00,,,0.00,Wunderground v.1.15,2013-01-01 13:30:00,
2013-01-01 09:00:00,35.7,21.9,29.76,West,276,5.0,11.0,57,0.00,,,0.00,Wunderground v.1.15,2013-01-01 14:00:00,
2013-01-01 09:30:00,35.9,21.7,29.77,SE,128,7.0,7.0,56,0.00,,,0.00,Wunderground v.1.15,2013-01-01 14:30:00,
2013-01-01 10:00:00,36.0,20.5,29.77,West,262,6.0,6.0,53,0.00,,,0.00,Wunderground v.1.15,2013-01-01 15:00:00,
2013-01-01 10:30:00,36.5,20.5,29.79,South,183,5.0,5.0,52,0.00,,,0.00,Wunderground v.1.15,2013-01-01 15:30:00,
2013-01-01 11:00:00,36.8,20.8,29.76,West,278,6.0,6.0,52,0.00,,,0.01,Wunderground v.1.15,2013-01-01 16:00:00,
2013-01-01 11:30:00,36.1,20.2,29.77,West,262,5.0,5.0,52,0.00,,,0.01,Wunderground v.1.15,2013-01-01 16:30:00,
2013-01-01 12:00:00,35.6,18.8,29.75,SW,236,6.0,6.0,50,0.00,,,0.01,Wunderground v.1.15,2013-01-01 17:00:00,
2013-01-01 12:30:00,35.5,18.7,29.75,West,273,7.0,7.0,50,0.00,,,0.02,Wunderground v.1.15,2013-01-01 17:30:00,
2013-01-01 13:00:00,34.9,17.7,29.74,WSW,240,7.0,7.0,49,0.00,,,0.02,Wunderground v.1.15,2013-01-01 18:00:00,
2013-01-01 13:30:00,34.8,18.0,29.73,West,260,6.0,6.0,50,0.00,,,0.02,Wunderground v.1.15,2013-01-01 18:30:00,
2013-01-01 14:00:00,33.9,16.3,29.74,West,276,8.0,8.0,48,0.00,,,0.02,Wunderground v.1.15,2013-01-01 19:00:00,
2013-01-01 14:30:00,33.3,17.5,29.75,WSW,242,5.0,5.0,52,0.00,,,0.02,Wunderground v.1.15,2013-01-01 19:30:00,
2013-01-01 15:00:00,32.6,17.3,29.75,WSW,253,4.0,5.0,53,0.00,,,0.02,Wunderground v.1.15,2013-01-01 20:00:00,
2013-01-01 15:30:00,31.7,16.5,29.76,WSW,255,3.0,3.0,53,0.00,,,0.02,Wunderground v.1.15,2013-01-01 20:30:00,
2013-01-01 16:00:00,30.9,16.2,29.77,West,265,4.0,6.0,54,0.00,,,0.02,Wunderground v.1.15,2013-01-01 21:00:00,
2013-01-01 16:30:00,30.7,16.0,29.77,NW,305,6.0,6.0,54,0.00,,,0.02,Wunderground v.1.15,2013-01-01 21:30:00,
2013-01-01 17:00:00,30.4,15.7,29.78,WNW,285,5.0,5.0,54,0.00,,,0.02,Wunderground v.1.15,2013-01-01 22:00:00,
2013-01-01 17:30:00,29.9,16.1,29.80,West,266,4.0,4.0,56,0.00,,,0.02,Wunderground v.1.15,2013-01-01 22:30:00,
2013-01-01 18:00:00,29.3,15.9,29.82,WNW,283,2.0,3.0,57,0.00,,,0.02,Wunderground v.1.15,2013-01-01 23:00:00,
2013-01-01 18:30:00,28.8,15.9,29.84,West,263,2.0,4.0,58,0.00,,,0.02,Wunderground v.1.15,2013-01-01 23:30:00,
2013-01-01 19:00:00,27.7,16.0,29.85,West,278,1.0,1.0,61,0.00,,,0.02,Wunderground v.1.15,2013-01-02 00:00:00,
2013-01-01 19:30:00,26.2,13.8,29.87,SW,235,1.0,1.0,59,0.00,,,0.02,Wunderground v.1.15,2013-01-02 00:30:00,
2013-01-01 20:00:00,25.1,13.5,29.88,NW,309,1.0,1.0,61,0.00,,,0.02,Wunderground v.1.15,2013-01-02 01:00:00,
2013-01-01 20:30:00,24.5,12.6,29.88,WSW,255,1.0,1.0,60,0.00,,,0.02,Wunderground v.1.15,2013-01-02 01:30:00,
2013-01-01 21:00:00,23.3,12.2,29.89,West,274,1.0,1.0,62,0.00,,,0.02,Wunderground v.1.15,2013-01-02 02:00:00,
2013-01-01 21:30:00,22.5,11.1,29.89,West,273,1.0,1.0,61,0.00,,,0.02,Wunderground v.1.15,2013-01-02 02:30:00,
2013-01-01 22:00:00,22.0,10.6,29.90,West,260,1.0,1.0,61,0.00,,,0.02,Wunderground v.1.15,2013-01-02 03:00:00,
2013-01-01 22:30:00,21.1,9.7,29.91,West,264,2.0,2.0,61,0.00,,,0.02,Wunderground v.1.15,2013-01-02 03:30:00,
2013-01-01 23:00:00,20.4,9.4,29.93,West,259,1.0,1.0,62,0.00,,,0.02,Wunderground v.1.15,2013-01-02 04:00:00,
2013-01-01 23:30:00,19.4,8.5,29.92,SW,236,1.0,4.0,62,0.00,,,0.02,Wunderground v.1.15,2013-01-02 04:30:00,